Regional Weather Roundup
Issued by NWS

Home | Current Version | Previous Version | Text Only | Print | Product List | Glossary On
Versions: 1 2 3 4 5 6 7 8 9 10 11 12 13 14 15 16 17 18 19 20 21 22 23 24 25 26 27 28 29 30 31 32 33 34 35 36 37 38 39 40 41 42 43 44 45 46 47 48 49 50
000
ASUS43 KLSX 291707
RWRMO

WEATHER SUMMARY FOR MISSOURI
NATIONAL WEATHER SERVICE SPRINGFIELD MO
1200 PM CDT TUE JUL 29 2014

NOTE: "FAIR" INDICATES FEW OR NO CLOUDS BELOW 12,000 FEET WITH NO
       SIGNIFICANT WEATHER AND/OR OBSTRUCTIONS TO VISIBILITY.
       CURRENT SKY AND/OR WEATHER CONDITIONS ARE NOT AVAILABLE FOR
       CHILLICOTHE AND FARMINGTON.

MOZ001>031-035>038-043-044-053-054-291800-
...NORTHERN AND WESTERN MISSOURI...

CITY           SKY/WX    TMP DP  RH WIND       PRES   REMARKS
KANSAS CTY INT PTSUNNY   78  60  53 NW6       30.20R
KANSAS C DTWN  MOSUNNY   79  57  46 NW8       30.18S
LEE`S SUMMIT   MOSUNNY   75  56  51 CALM      30.19S
ST JOSEPH      MOSUNNY   77  61  57 N7        30.20S
CHILLICOTHE      N/A     78  57  48 CALM      30.19S
KIRKSVILLE     MOSUNNY   75  54  47 NW7       30.18F

$$
MOZ066>068-077>081-088>096-101>105-291800-
...SOUTHWEST MISSOURI...

CITY           SKY/WX    TMP DP  RH WIND       PRES   REMARKS
SPRINGFIELD    MOSUNNY   78  54  43 CALM      30.19F
JOPLIN         SUNNY     80  56  43 VRB6      30.19F

$$
MOZ032>034-039>042-045>050-055>058-069>072-291800-
...CENTRAL MISSOURI...

CITY           SKY/WX    TMP DP  RH WIND       PRES   REMARKS
COLUMBIA       MOSUNNY   78  56  46 NW9       30.18S
JEFFERSON CITY MOSUNNY   75  56  51 NW5       30.16F
ROLLA          MOSUNNY   76  52  43 N7        30.16F
SEDALIA        MOSUNNY   78  58  49 W5        30.19S
WHITEMAN AFB   MOSUNNY   77  47  35 SW7       30.17S
OSAGE BEACH    MOSUNNY   77  55  47 W7        30.18S

$$
MOZ051-052-059>065-291800-
...EAST CENTRAL MISSOURI...

CITY           SKY/WX    TMP DP  RH WIND       PRES   REMARKS
ST LOUIS INTL  MOSUNNY   77  54  44 NW7       30.16S
SPIRIT OF STL  PTSUNNY   77  53  43 NW8       30.15S
ST CHARLES     SUNNY     75  57  53 W6        30.14F

$$
MOZ072>076-082>087-097>100-106>115-291800-
...SOUTH CENTRAL AND SOUTHEAST MISSOURI...

CITY           SKY/WX    TMP DP  RH WIND       PRES   REMARKS
CAPE GIRARDEAU SUNNY     76  53  44 CALM      30.15F
FARMINGTON     SUNNY     73  48  40 N5        30.19F
POPLAR BLUFF   SUNNY     75  50  41 E7        30.15F
WEST PLAINS    MOSUNNY   76  54  46 NE8       30.19F

$$


USA.gov is the U.S. government's official web portal to all federal, state and local government web resources and services.